Wind_Speed
37 35 33 31 29 27 26 24 24 22 20 17 17 15 13 12 11 10 9 8 7 7 7 8 8 8 9 10 11 12 12 14 16 17 18 19 20 21 22 23 24 25 26 27
40 38 38 36 33 30 28 25 25 24 22 19 18 16 15 14 13 12 10 9 8 8 8 8 9 10 11 11 13 14 14 15 16 17 17 18 20 22 23 24 25 26 27 29
43 41 40 39 35 32 29 27 26 25 22 20 20 19 16 15 14 12 11 10 10 11 11 11 12 13 14 14 15 16 17 17 17 18 19 20 22 22 23 24 25 27 29 30
46 44 45 40 37 34 33 31 29 27 25 24 22 20 17 16 15 15 14 13 13 12 13 13 14 15 15 16 17 18 18 19 20 21 22 24 24 24 25 26 27 29 30 31
48 49 47 43 39 36 34 32 30 28 28 26 24 22 19 18 17 16 15 15 14 14 15 15 16 16 17 17 19 20 21 23 23 24 25 25 25 26 28 29 31 32 32 34
47 48 47 42 40 37 35 35 31 29 29 28 27 23 21 20 19 17 16 16 15 15 16 17 17 18 19 20 21 22 24 25 26 27 27 28 28 29 30 33 34 34 34 37
45 46 46 43 42 39 38 35 32 31 31 30 28 25 22 21 20 18 17 16 15 16 17 18 19 20 21 22 23 25 26 27 27 29 30 31 32 32 33 34 35 36 37 38
39 43 44 41 39 38 36 34 33 31 31 29 27 26 24 21 20 19 18 17 17 18 19 19 20 21 23 24 25 27 28 29 30 31 32 33 34 35 35 36 36 37 38 38
33 36 37 36 37 36 33 32 30 29 27 25 25 24 24 22 20 18 18 18 18 19 20 21 22 23 25 26 28 30 31 31 33 34 34 35 35 35 36 37 38 39 40 41
25 25 29 30 31 31 29 26 25 26 24 23 24 22 21 20 19 19 19 20 20 21 21 23 24 25 26 28 29 31 32 33 34 35 36 36 36 36 37 37 39 40 41 42
19 21 22 25 24 23 23 23 23 22 22 23 21 19 18 17 17 17 18 19 20 21 22 24 25 26 28 29 31 32 33 34 34 35 36 37 38 38 39 39 40 41 42 44
15 15 16 16 15 15 17 19 19 17 18 18 17 17 17 17 18 18 19 20 21 23 24 25 27 28 29 30 31 32 33 34 35 36 37 38 39 39 40 41 42 44 45 46
9 10 11 11 11 11 12 13 14 15 15 15 15 15 15 16 17 19 20 21 22 23 25 26 27 28 30 31 32 33 34 35 35 36 37 39 40 41 42 44 45 46 47 49
6 6 7 7 8 8 9 10 11 12 12 13 14 14 15 16 17 18 20 21 22 24 25 26 28 29 30 31 32 33 34 36 37 38 39 41 42 43 44 45 46 48 49 51
5 6 6 6 7 7 8 9 9 10 10 11 13 14 15 17 18 20 21 23 24 25 26 27 29 30 31 32 34 35 36 38 39 40 41 42 43 45 46 47 48 50 51 52
7 7 7 7 7 7 8 8 10 11 12 13 15 16 18 19 20 22 23 24 26 27 28 29 31 32 34 35 37 38 39 40 41 42 43 44 45 46 47 49 50 51 52 52
6 6 6 7 7 7 9 10 12 13 14 15 17 18 19 20 22 23 25 26 27 29 30 32 34 35 37 38 39 40 41 42 43 44 45 46 47 48 49 50 50 51 50 50
8 8 8 9 9 10 11 12 13 14 15 17 18 20 21 22 23 25 26 28 29 31 33 34 36 38 39 40 41 42 43 44 45 46 46 47 47 47 48 48 47 47 46 46
9 9 9 10 11 12 13 14 15 16 18 19 20 22 23 25 26 28 29 31 32 34 35 37 39 40 41 41 42 43 43 44 45 45 46 46 46 45 45 44 43 42 41 41
11 11 12 13 13 14 15 16 17 19 20 22 23 24 26 28 29 31 32 34 35 36 37 39 40 41 41 41 41 41 42 42 42 43 43 43 42 41 39 38 37 37 36 35
12 13 14 15 15 16 17 19 20 22 23 25 26 28 29 31 32 33 34 35 36 37 38 39 40 40 39 39 40 40 40 40 40 40 39 38 36 35 34 33 33 32 31 30
14 15 16 17 18 19 20 22 24 25 27 28 30 31 32 33 34 34 35 36 37 38 38 38 38 38 38 38 38 38 38 37 37 36 34 33 32 31 30 30 29 28 26 25
16 17 19 20 21 23 24 26 27 29 30 31 32 32 33 33 34 34 35 36 37 37 37 36 37 36 36 35 35 34 34 34 33 32 31 30 29 28 27 27 26 25 24 23
19 20 22 23 25 26 28 29 30 30 31 32 32 33 34 34 34 34 35 35 35 34 34 34 33 33 32 33 33 33 32 32 31 30 29 28 27 25 25 24 24 23 22 22
22 23 25 27 28 29 30 30 31 31 32 33 33 33 33 33 34 33 33 32 32 31 31 31 31 30 31 31 31 31 30 30 29 28 27 25 24 23 23 23 23 22 22 22
25 26 27 28 29 30 30 31 31 32 32 32 33 33 33 32 32 32 31 30 30 30 29 28 28 29 29 29 29 28 28 27 26 26 25 24 23 23 23 23 22 22 22 22
26 27 28 29 29 30 30 31 31 31 31 31 31 31 30 29 29 28 28 28 28 27 27 27 27 28 27 27 27 27 26 25 25 25 24 23 23 23 23 23 22 22 22 22
Wind_Direction
248 248 249 251 253 260 266 269 268 269 272 279 289 292 297 301 305 305 300 290 282 276 278 273 267 262 255 252 250 252 253 251 254 250 251 252 254 255 255 255 256 256 257 259
248 249 251 251 254 257 260 261 262 264 268 274 281 285 288 293 299 297 292 285 279 274 275 275 268 270 265 264 263 261 260 262 264 256 261 262 259 261 258 258 258 259 260 262
248 249 251 252 254 255 255 257 259 262 267 270 275 280 284 288 291 287 290 289 286 281 279 279 272 273 272 272 272 273 270 270 272 270 273 271 268 267 262 263 266 266 266 266
247 247 248 251 253 254 252 254 257 260 262 267 273 273 279 282 282 281 280 285 284 281 279 278 275 276 277 276 276 278 278 279 279 275 275 274 272 270 271 271 272 272 270 270
245 246 248 249 250 250 250 252 253 256 261 265 267 265 271 274 277 276 275 279 280 277 275 276 277 280 279 279 280 281 282 284 282 282 280 281 282 279 275 274 276 275 274 274
244 245 247 247 246 247 248 250 252 257 261 262 261 264 271 269 269 272 270 272 274 275 276 276 278 280 282 283 283 283 285 286 284 284 283 284 283 283 282 280 280 279 278 277
244 245 245 246 244 244 247 250 252 255 259 260 257 261 263 264 264 266 268 269 270 272 272 273 275 277 279 282 284 286 289 288 287 287 286 285 285 285 284 284 283 281 280 279
246 244 244 245 245 244 248 247 247 250 253 252 256 258 255 258 259 260 264 267 269 270 271 272 273 275 278 281 284 286 288 288 288 288 287 286 286 286 286 284 283 282 281 279
246 246 245 245 247 246 245 243 244 249 255 254 254 252 255 258 256 259 263 265 267 269 272 274 274 276 279 282 284 286 287 288 288 289 288 287 287 288 286 284 283 282 281 280
243 241 241 243 244 242 241 243 248 248 250 250 249 252 253 250 257 259 261 264 266 270 273 275 277 278 280 282 284 285 286 287 289 289 288 288 288 288 287 286 284 284 284 284
245 247 247 245 245 245 244 249 250 247 251 255 252 248 247 252 257 259 263 265 270 273 275 277 279 280 282 283 284 285 287 288 288 288 289 288 288 288 287 287 286 285 284 284
238 236 237 237 238 239 240 241 242 246 249 249 247 248 254 258 261 265 268 270 272 274 276 278 280 282 284 285 286 287 289 290 290 290 290 289 288 288 287 287 287 287 286 286
230 229 233 234 236 233 229 230 237 240 245 246 248 253 256 260 264 266 270 274 276 277 278 280 282 284 285 287 288 289 290 291 292 292 292 291 291 290 289 289 289 288 288 288
207 210 212 221 227 226 229 237 238 242 250 253 255 259 261 266 269 270 274 278 281 282 284 285 285 286 288 290 290 291 292 292 293 293 293 293 292 291 290 290 289 289 289 289
207 207 217 226 234 237 238 241 244 251 257 261 263 267 271 274 276 278 281 283 284 286 287 287 289 290 292 292 293 293 293 294 294 294 294 294 293 293 292 291 291 291 291 290
206 212 218 225 234 241 250 257 259 263 266 268 271 273 276 279 282 283 285 287 289 290 291 292 293 294 295 295 295 296 296 296 295 295 295 294 293 293 292 292 292 292 292 291
229 227 232 242 247 254 259 261 264 267 270 273 276 279 282 284 286 288 289 290 291 292 292 294 295 296 297 297 297 297 297 296 295 295 294 294 294 294 294 294 293 293 292 292
246 246 250 256 260 262 266 269 271 274 277 280 282 284 286 288 289 290 291 292 292 293 294 295 296 297 297 298 298 298 297 297 296 296 295 295 296 296 296 296 296 295 294 293
252 255 259 262 263 265 271 274 277 279 281 283 285 286 288 290 291 292 293 293 294 295 296 296 297 297 298 299 299 298 297 297 297 297 298 298 298 299 299 298 297 297 297 296
260 265 268 271 272 274 277 281 284 285 287 288 288 289 290 292 294 295 295 296 296 297 297 298 299 300 300 300 300 300 300 300 300 300 300 301 301 301 301 300 300 300 300 299
271 275 277 279 280 282 284 286 288 289 290 290 291 292 294 295 296 297 297 297 299 300 301 301 302 302 302 301 301 301 302 302 302 302 302 302 302 302 303 304 304 304 303 302
275 278 280 281 283 285 287 289 290 291 292 293 293 294 296 297 298 298 298 299 300 301 302 302 303 303 302 302 302 303 303 304 305 305 304 304 304 305 306 306 307 307 306 305
276 279 281 283 285 287 289 291 293 294 295 295 296 298 298 298 299 299 300 300 301 302 302 302 302 302 302 303 304 305 306 307 307 307 307 306 306 306 306 307 308 309 309 308
280 282 283 285 288 290 292 294 294 295 296 297 298 299 299 299 299 300 300 301 301 301 301 301 302 304 304 305 305 306 306 307 307 306 308 309 308 308 307 307 308 308 309 310
283 284 286 288 290 291 293 295 295 295 296 297 298 298 298 298 298 299 299 299 299 300 301 301 303 305 306 307 307 306 306 307 307 307 309 310 309 308 308 309 308 308 309 310
285 287 288 290 291 292 294 295 295 296 296 297 298 298 297 297 297 298 299 299 300 302 302 301 303 306 307 308 308 309 309 309 311 311 311 310 308 308 309 309 308 309 309 309
287 288 290 290 291 293 294 295 296 297 298 299 299 298 297 297 297 298 299 300 301 302 303 303 304 306 308 309 309 311 311 311 311 312 312 311 310 309 309 309 308 308 309 309
Height
5823 5826 5828 5830 5833 5834 5834 5834 5834 5835 5835 5835 5835 5835 5835 5835 5835 5835 5834 5834 5834 5834 5834 5835 5835 5835 5835 5835 5835 5835 5836 5836 5836 5836 5837 5837 5838 5838 5838 5838 5838 5838 5838 5837
5816 5818 5820 5823 5826 5827 5828 5829 5829 5830 5831 5831 5831 5831 5832 5831 5831 5831 5831 5831 5831 5831 5831 5831 5832 5832 5831 5831 5831 5831 5831 5831 5831 5830 5831 5831 5831 5831 5831 5831 5830 5830 5830 5829
5807 5810 5812 5815 5819 5820 5822 5823 5824 5825 5827 5826 5826 5826 5827 5827 5826 5827 5827 5827 5826 5826 5827 5827 5827 5827 5827 5827 5827 5826 5826 5826 5825 5824 5825 5825 5824 5824 5823 5823 5823 5822 5821 5820
5798 5802 5803 5810 5811 5812 5814 5816 5817 5819 5820 5821 5821 5821 5821 5821 5821 5822 5822 5822 5821 5821 5822 5822 5822 5822 5822 5822 5822 5821 5821 5820 5819 5819 5818 5817 5817 5817 5816 5816 5815 5814 5812 5812
5788 5790 5793 5799 5802 5804 5806 5808 5811 5812 5814 5814 5815 5815 5815 5816 5816 5816 5816 5817 5817 5817 5817 5817 5817 5817 5816 5816 5816 5815 5815 5814 5813 5812 5811 5810 5809 5808 5807 5807 5806 5804 5803 5802
5778 5780 5784 5791 5794 5796 5800 5801 5804 5806 5807 5808 5809 5809 5811 5810 5810 5810 5811 5811 5811 5812 5812 5811 5811 5811 5811 5810 5810 5809 5808 5807 5806 5805 5803 5803 5802 5800 5799 5798 5796 5795 5793 5792
5768 5770 5773 5780 5784 5788 5791 5794 5797 5799 5800 5801 5801 5803 5804 5804 5804 5805 5805 5805 5806 5806 5806 5806 5806 5805 5805 5804 5803 5802 5801 5799 5798 5797 5795 5794 5792 5791 5789 5788 5786 5784 5782 5780
5759 5762 5767 5770 5775 5779 5782 5785 5788 5790 5791 5792 5793 5794 5796 5797 5798 5799 5799 5800 5800 5801 5801 5800 5800 5799 5798 5797 5796 5795 5793 5791 5790 5788 5787 5785 5783 5781 5779 5777 5775 5773 5771 5769
5752 5756 5759 5763 5767 5770 5773 5777 5779 5781 5783 5784 5785 5786 5788 5790 5792 5793 5793 5794 5794 5794 5794 5793 5793 5792 5791 5790 5788 5786 5784 5783 5781 5779 5777 5775 5773 5771 5768 5766 5765 5762 5760 5757
5745 5748 5751 5755 5758 5762 5765 5768 5770 5773 5776 5777 5778 5779 5780 5783 5785 5786 5787 5787 5787 5787 5787 5786 5785 5784 5783 5781 5780 5778 5775 5773 5771 5769 5767 5765 5762 5760 5758 5756 5753 5751 5748 5745
5741 5743 5745 5748 5751 5754 5758 5761 5764 5766 5769 5771 5772 5773 5775 5776 5778 5779 5780 5780 5781 5780 5780 5779 5777 5776 5774 5773 5771 5769 5766 5764 5761 5759 5756 5754 5751 5749 5746 5744 5741 5738 5735 5731
5738 5740 5742 5744 5747 5749 5752 5754 5756 5759 5762 5764 5765 5767 5769 5770 5772 5773 5773 5773 5773 5772 5772 5770 5769 5767 5765 5763 5761 5758 5756 5753 5751 5748 5746 5743 5740 5737 5734 5731 5727 5724 5721 5717
5735 5737 5739 5742 5744 5746 5748 5750 5752 5754 5757 5759 5761 5762 5763 5764 5765 5766 5766 5766 5765 5764 5763 5762 5760 5759 5756 5754 5752 5749 5746 5743 5740 5737 5734 5731 5728 5725 5721 5717 5714 5710 5706 5702
5734 5736 5737 5739 5741 5743 5745 5747 5749 5750 5752 5754 5756 5757 5758 5759 5759 5759 5759 5758 5757 5756 5755 5754 5752 5750 5747 5745 5742 5739 5736 5733 5729 5726 5722 5719 5715 5711 5708 5703 5699 5695 5690 5685
5732 5734 5736 5737 5738 5740 5742 5743 5745 5746 5748 5749 5750 5751 5752 5752 5752 5752 5752 5751 5749 5748 5746 5744 5742 5740 5737 5734 5731 5728 5725 5721 5718 5714 5710 5706 5702 5697 5693 5689 5684 5679 5675 5669
5730 5732 5733 5735 5736 5738 5739 5740 5742 5743 5744 5744 5745 5746 5746 5746 5745 5745 5744 5742 5740 5739 5737 5735 5732 5729 5726 5723 5720 5717 5713 5709 5705 5701 5697 5692 5688 5683 5678 5673 5668 5663 5658 5653
5728 5729 5731 5732 5734 5735 5736 5737 5738 5739 5739 5740 5740 5740 5740 5739 5738 5737 5735 5733 5732 5730 5727 5725 5721 5718 5715 5712 5708 5704 5700 5696 5692 5688 5683 5678 5673 5668 5663 5657 5652 5646 5641 5636
5726 5727 5729 5730 5731 5732 5733 5733 5734 5734 5734 5734 5734 5733 5732 5731 5730 5729 5727 5725 5722 5720 5717 5714 5711 5707 5704 5700 5696 5691 5687 5682 5678 5673 5668 5663 5658 5653 5647 5642 5636 5631 5626 5621
5723 5725 5726 5727 5728 5728 5729 5729 5729 5729 5729 5728 5727 5726 5725 5724 5722 5720 5718 5715 5712 5709 5706 5703 5699 5696 5692 5687 5683 5678 5673 5668 5664 5659 5653 5648 5643 5638 5632 5627 5622 5617 5612 5607
5720 5721 5722 5722 5723 5723 5724 5723 5723 5722 5722 5721 5720 5718 5717 5715 5713 5710 5707 5705 5701 5698 5694 5691 5687 5683 5679 5674 5669 5665 5660 5655 5650 5645 5639 5634 5629 5624 5619 5615 5610 5605 5601 5596
5716 5716 5717 5717 5717 5717 5717 5717 5716 5716 5715 5713 5711 5709 5707 5705 5702 5699 5696 5693 5690 5686 5682 5678 5674 5670 5666 5662 5657 5652 5647 5642 5637 5632 5627 5622 5618 5613 5609 5604 5600 5595 5591 5587
5711 5711 5712 5712 5711 5711 5711 5710 5709 5707 5706 5704 5702 5700 5697 5694 5691 5688 5685 5682 5678 5674 5670 5666 5662 5658 5654 5650 5645 5641 5636 5631 5626 5621 5616 5612 5608 5604 5599 5595 5591 5587 5583 5579
5706 5706 5705 5705 5704 5704 5702 5701 5699 5698 5696 5694 5691 5689 5686 5683 5680 5677 5674 5670 5667 5663 5659 5655 5651 5648 5643 5639 5635 5630 5626 5621 5616 5612 5607 5603 5599 5595 5591 5587 5584 5580 5576 5573
5700 5699 5698 5698 5696 5695 5693 5692 5690 5688 5686 5683 5681 5678 5676 5673 5670 5666 5663 5659 5656 5652 5649 5645 5641 5638 5634 5629 5625 5621 5616 5612 5608 5603 5599 5595 5591 5587 5584 5580 5577 5573 5570 5566
5693 5692 5691 5689 5688 5686 5684 5682 5680 5678 5676 5674 5671 5669 5666 5663 5660 5656 5653 5650 5646 5643 5640 5636 5632 5629 5625 5621 5617 5612 5608 5604 5600 5596 5592 5588 5584 5581 5577 5574 5571 5567 5564 5560
5685 5684 5682 5681 5679 5677 5675 5673 5671 5669 5667 5664 5661 5659 5656 5653 5650 5647 5644 5640 5637 5634 5631 5628 5624 5621 5617 5613 5609 5605 5601 5597 5593 5589 5585 5582 5578 5575 5571 5568 5564 5561 5558 5555
5677 5675 5674 5672 5670 5668 5666 5664 5662 5659 5657 5654 5652 5649 5646 5643 5640 5638 5635 5632 5629 5626 5623 5620 5617 5613 5609 5606 5602 5598 5594 5590 5586 5582 5579 5575 5572 5568 5565 5562 5558 5555 5552 5548